Location: Tr�vern
(48.0333°N, 4.6000°W)
Time: 02:14:30
(UTC+00:00)

ADEOS II - Pass Details

Date: 14 July 2020
Orbit: 799 x 801 km, 98.5° (Epoch: 04 August)

Event Time Altitude Azimuth Distance (km) Brightness Sun altitude
Rises 02:57:15 0° 13° (NNE) 3,322 6.7 -12.4°
Reaches altitude 10° 02:59:35 10° 13° (NNE) 2,387 5.7 -12.1°
Maximum altitude 03:04:52 81° 286° (WNW) 815 2.1 -11.6°
Enters shadow 03:09:33 13° 200° (SSW) 2,148 3.7 -11.1°
